Regional Weather Roundup
Issued by NWS

Home | Current Version | Previous Version | Text Only | Print | Product List | Glossary On
Versions: 1 2 3 4 5 6 7 8 9 10 11 12 13 14 15 16 17 18 19 20 21 22 23 24 25 26 27 28 29 30 31 32 33 34 35 36 37 38 39 40 41 42 43 44 45 46 47 48 49 50
000
ASUS45 KBOI 020010
RWRID

IDAHO REGIONAL WEATHER ROUNDUP
NATIONAL WEATHER SERVICE BOISE ID
600 PM MDT WED JUL 01 2015

NOTE: "FAIR" INDICATES FEW OR NO CLOUDS BELOW 12000 FEET
WITH NO SIGNIFICANT WEATHER AND/OR OBSTRUCTIONS TO VISIBILITY

IDZ012-014-020100-
SOUTHWEST IDAHO


CITY           SKY/WX    TMP DP  RH WIND       PRES   REMARKS
BOISE          SUNNY    101  43  13 NW13      29.92F HX  96
CALDWELL       SUNNY    100  46  16 N9        29.90F HX  96
MOUNTAIN HOME  SUNNY    103  42  12 N16G25    29.91S HX  98
$$

IDZ016-017-020100-
SOUTHCENTRAL IDAHO


CITY           SKY/WX    TMP DP  RH WIND       PRES   REMARKS
BURLEY         MOSUNNY   90  51  26 W13       30.00F
JEROME         MOSUNNY   97  44  16 SW15      29.99F HX  93
TWIN FALLS     MOSUNNY   98  43  15 W8        29.99F HX  94
$$

IDZ019>023-020100-
SOUTHEAST IDAHO


CITY           SKY/WX    TMP DP  RH WIND       PRES   REMARKS
IDAHO FALLS    SUNNY     92  44  19 S10       30.04F
POCATELLO      SUNNY     94  43  17 SW17      30.02F HX  90
REXBURG        SUNNY     90  47  22 S13       30.04F
$$

IDZ006-010-011-018-031-032-020100-
CENTRAL IDAHO MOUNTAINS


CITY           SKY/WX    TMP DP  RH WIND       PRES   REMARKS
MCCALL         SUNNY     91  35  13 MISG      30.10F
HAILEY         MOSUNNY   91  45  19 W14       30.07F
STANLEY          N/A     86  34  15 NW7       30.21F
SALMON         SUNNY     93  45  18 N14G20    29.93F
CHALLIS        SUNNY     96  28   9 NW10G22   30.03S HX  90
$$

IDZ002-004-006-007-026-020100-
NORTHERN IDAHO


CITY           SKY/WX    TMP DP  RH WIND       PRES   REMARKS
LEWISTON       SUNNY    101  44  14 W5        29.89F HX  97
LOWELL           N/A     97  51  21 W3        29.89S HX  94
COEUR D`ALENE  SUNNY     93  48  21 W7        29.94F HX  90
MULLAN PASS    SUNNY     77  43  29 CALM      30.23S
$$


USA.gov is the U.S. government's official web portal to all federal, state and local government web resources and services.